User: anonymous   Login
Location: Copeville
(33.0796°N, 96.4155°W)
Time: 13:48:45
(UTC+00:00)
Language:

Oscar 11 - Orbit

View from above orbital plane
View from above orbital plane
View from above satellite
View from above satellite

Ground track
Ground track

The orbit data is extracted from the following two-line orbital elements,

1 14781U 84021B   23083.88397967  .00003979  00000-0  47729-3 0  9999
2 14781  97.6509  64.1356 0009806 114.2500 245.9740 14.84542767 81637
Epoch (UTC): 24 March 2023 21:12:55
Eccentricity: 0.0009806
inclination: 97.6509°
perigee height: 608 km
apogee height: 622 km
right ascension of ascending node: 64.1356°
argument of perigee: 114.2500°
revolutions per day: 14.84542767
mean anomaly at epoch: 245.9740°
orbit number at epoch: 8163

The dashed part of the orbit path shows where the satellite is in the earth's shadow,  

DLR